Regional Weather Roundup
Issued by NWS

Home | Current Version | Previous Version | Text Only | Print | Product List | Glossary Off
Versions: 1 2 3 4 5 6 7 8 9 10 11 12 13 14 15 16 17 18 19 20 21 22 23 24 25 26 27 28 29 30 31 32 33 34 35 36 37 38 39 40 41 42 43 44 45 46 47 48 49 50

000
ASUS43 KBIS 061010
RWRND

NORTH DAKOTA REGIONAL WEATHER ROUNDUP
NATIONAL WEATHER SERVICE BISMARCK ND
500 AM CDT MON JUL 06 2015

NOTE: "FAIR" INDICATES FEW OR NO CLOUDS BELOW 12,000 FEET WITH NO
SIGNIFICANT WEATHER AND/OR OBSTRUCTIONS TO VISIBILITY.


NDZ001>003-009>011-017-061100-
NORTHWEST NORTH DAKOTA

CITY           SKY/WX    TMP DP  RH WIND       PRES   REMARKS
WILLISTON      CLOUDY    59  50  72 N6        30.14R
MINOT          MOCLDY    53  50  89 NW6       30.08R FOG
MINOT AFB      PTCLDY    54  54  99 N6        30.08R
$$

NDZ018>021-031>035-040>046-061100-
SOUTHWEST NORTH DAKOTA

CITY           SKY/WX    TMP DP  RH WIND       PRES   REMARKS
BISMARCK       CLOUDY    61  54  77 N7        30.07R
DICKINSON      MOCLDY    55  51  86 NW7       30.11R
GARRISON         N/A     57  53  86 N5        30.08R
HETTINGER ARPT CLOUDY    57  52  83 NW5       30.14R
$$

NDZ004>008-012>016-024-026-027-054-061100-
NORTHEAST NORTH DAKOTA

CITY           SKY/WX    TMP DP  RH WIND       PRES   REMARKS
GRAND FORKS    CLOUDY    58  52  80 N8        29.99R
GRND FRKS AFB  MOCLDY    58  52  79 N12       30.00R
DEVILS LAKE    CLOUDY    57  50  77 N8        30.04R
$$

NDZ022-023-025-028>030-036>039-047>053-061100-
SOUTHEAST NORTH DAKOTA

CITY           SKY/WX    TMP DP  RH WIND       PRES   REMARKS
FARGO          CLOUDY    64  59  83 N14G24    29.93R HAZE
JAMESTOWN      CLOUDY    61  57  87 N7        30.01R FOG
$$




USA.gov is the U.S. government's official web portal to all federal, state and local government web resources and services.